Terminal Aerodrome Forecast
Issued by NWS

Home | Current Version | Previous Version | Text Only | Print | Product List | Glossary On
Versions: 1 2 3 4 5 6 7 8 9 10 11 12 13 14 15 16 17 18 19 20 21 22 23 24 25 26 27 28 29 30 31 32 33 34 35 36 37 38 39 40 41 42 43 44 45 46 47 48 49 50
954
FTUS41 KCTP 200300 AAA
TAFJST
TAF AMD
KJST 200300Z 2003/2024 13004KT P6SM BKN200
     FM201030 15007KT 5SM BR SCT008 OVC015
     FM201230 16008KT 1SM -RA BR OVC004
     FM202000 20008KT P6SM SCT007 OVC015=

USA.gov is the U.S. government's official web portal to all federal, state and local government web resources and services.